NOAA 17 DEB

Satellite information

Favourite Embed

Satellite Type and Status

DEBRISIN ORBIT

Key statistics

Satellite NOAA 17 DEB at a glance.

Uptime

8478

Days in orbit

Revolutions

≈ 14.5

Per day

Orbit

SSO

Sun Synchronous Orbit

Inclination

98.8

Latest

Satellite identification and parameters

Extended collection of information and parameters for NOAA 17 DEB.

Object identification

Identified? True

Debris? True

Object name: NOAA 17 DEB

International designator: 2002-032BD

Object number (NORAD): 48720

Object ID (CCSDS): 48720

Country: UNITED STATES OF AMERICA (US)

Current information (Y/N): Y

RCS size: SMALL

Orbital parameters

Period: 99.357 minutes

Inclination: 98.8254 deg

SMA: 7106.013 km

Apoapsis: 751.868 km

Periapsis: 703.888 km

RAAN: 239.564 deg

Eccentricy: 0.00337596

Argument of periapsis: 113.4099 deg

Mean anomaly: 247.0649 deg

Mean motion: 14.49318283 rev/day

Mean motion (dot): 0.00009926 rev/day2

B* drag term: 0.0025907227 1/REarth

Two-line elements (TLE)

Creation date: Sept. 8, 2025, 3:16 a.m.

Reference frame: TEME

Reference center: EARTH

Epoch: Sept. 7, 2025, 10:26 a.m. UTC

TLE line 0: 0 NOAA 17 DEB

TLE line 1: 1 48720U 02032BD 25250.43480971 .00009926 00000-0 25907-2 0 9999

TLE line 2: 2 48720 98.8254 239.5640 0033760 113.4099 247.0649 14.49318283233928

Live tracking on map

Real-time ground track for satellite NOAA 17 DEB.

In-orbit conjunctions

A list of the most updated potential collisions computed for object NOAA 17 DEB.

Target Orbit TCA Probability of collision Miss distance Type
DELTA 1 DEB LEO 2024-12-25 17:20:34 0.0001213461 305.0 (m) DEBRIS
COSMOS 1420 LEO 2024-08-05 15:37:26 0.0005031218 287.0 (m) PAYLOAD
THORAD AGENA D DEB LEO 2024-07-01 18:25:53 0.0001753085 87.0 (m) DEBRIS
COSMOS 2251 DEB LEO 2024-06-20 09:56:51 0.0001082416 67.0 (m) DEBRIS

Associated space launch

NOAA M carried weather imagers and microwave and infrared sounders, as well as a SARSAT search-and-rescue package. It had an on-orbit mass of 1475 kg.

NOAA 17 DEB was lifted into orbit during the mission ‘Titan II SLV | NOAA 17’, on board a Titan II SLV space rocket.

The launch took place on June 24, 2002, 6:23 p.m. from Space Launch Complex 4W.

For more information about the launch, click the button.

Launch to space Titan II SLV | NOAA 17
Titan II SLV | NOAA 17

Agency: N/A

Status: Launch Successful

Launch date: June 24, 2002, 6:23 p.m. UTC

Rocket: Titan II SLV

Launch pad: Space Launch Complex 4W

Location: Vandenberg SFB, CA, USA

...

Latest news about this satellite

There are no fresh news available about this satellite. Check back as we update our databases every day.


Newsletter sign-up

Weekly statistics, charts and insights to help you stay on top of the space industry.